This demonstration page uses our WeatherBlox Daily Observations layout. Learn more.

Left ArrowRight Arrow

Hourly Observations for November 27, 2021

Temp ( °F °C ) Dew Point ( °F °C ) Humidity (%) Winds ( mph kmh ) Pressure ( in mb ) Visibility ( mi km ) Precip ( " mm )
12:15 am 00:15 Partly Cloudy 38 3.1 26 -3.3 63 63 W 10 17 29.97 1015 10 16 N/A
12:35 am 00:35 Clear 39 4 24 -4.6 54 54 NW 10 17 29.95 1014 10 16 N/A
12:55 am 00:55 Clear 38 3.6 24 -4.7 55 55 WNW 8 13 29.95 1014 10 16 N/A
1:15 am 01:15 Clear 36 2.2 24 -4.5 62 62 WNW 10 17 29.95 1014 10 16 N/A
1:35 am 01:35 Clear 37 2.6 23 -4.8 59 59 WNW 12 19 29.96 1015 10 16 N/A
1:55 am 01:55 Clear 36 2.3 23 -5 59 59 WNW 12 19 29.96 1015 10 16 N/A
2:15 am 02:15 Clear 35 1.5 23 -5 62 62 WNW 13 20 29.97 1015 10 16 N/A
2:35 am 02:35 Clear 34 1.2 23 -5 64 64 WNW 8 13 29.98 1015 10 16 N/A
2:55 am 02:55 Clear 33 0.4 23 -5 67 67 WNW 9 15 29.99 1016 10 16 N/A
3:15 am 03:15 Clear 34 1 23 -5.1 64 64 WNW 9 15 30.00 1016 10 16 N/A
3:35 am 03:35 Clear 32 0.1 23 -5.2 68 68 WNW 10 17 30.02 1016 10 16 N/A
3:55 am 03:55 Clear 32 undefined 23 -5.1 69 69 WNW 10 17 30.02 1016 10 16 N/A
4:15 am 04:15 Clear 32 undefined 23 -5.2 68 68 WNW 12 19 30.03 1017 10 16 N/A
4:35 am 04:35 Clear 33 0.7 23 -5.1 66 66 WNW 13 20 30.04 1017 10 16 N/A
4:55 am 04:55 Clear 33 0.5 23 -5 67 67 WNW 10 17 30.05 1018 10 16 N/A
5:15 am 05:15 Clear 33 0.5 23 -4.8 68 68 W 9 15 30.06 1018 10 16 N/A
5:35 am 05:35 Clear 32 undefined 23 -4.8 70 70 W 9 15 30.07 1018 10 16 N/A
5:55 am 05:55 Clear 32 0.1 24 -4.4 72 72 W 10 17 30.09 1019 10 16 N/A
6:15 am 06:15 Clear 32 -0.1 25 -4 75 75 W 8 13 30.09 1019 10 16 N/A
6:35 am 06:35 Clear 32 -0.2 25 -3.8 77 77 W 9 15 30.10 1019 10 16 N/A
6:55 am 06:55 Clear 32 0.2 27 -2.8 81 81 NW 8 13 30.12 1020 10 16 N/A
7:15 am 07:15 Clear 42 5.8 32 -0.1 66 66 NW 10 17 30.06 1018 10 16 N/A
7:35 am 07:35 Clear 48 8.7 32 -0.2 54 54 NNW 16 26 30.05 1018 10 16 N/A
7:55 am 07:55 Sunny 46 8 31 -0.5 55 55 NNW 13 20 30.07 1018 10 16 N/A
8:15 am 08:15 Sunny 44 6.7 31 -0.5 60 60 WNW 9 15 30.09 1019 10 16 N/A
8:35 am 08:35 Sunny 43 6 31 -0.3 64 64 W 9 15 30.11 1020 10 16 N/A
8:55 am 08:55 Sunny 45 7 32 undefined 61 61 WNW 10 17 30.11 1020 10 16 N/A
9:15 am 09:15 Sunny 47 8.3 32 undefined 56 56 WNW 12 19 30.11 1020 10 16 N/A
9:35 am 09:35 Sunny 49 9.2 32 undefined 53 53 NW 14 22 30.11 1020 10 16 N/A
9:55 am 09:55 Sunny 51 10.3 32 undefined 49 49 NW 15 24 30.11 1020 10 16 N/A
10:15 am 10:15 Sunny 53 11.6 32 0.1 45 45 NNW 13 20 30.10 1019 10 16 N/A
10:35 am 10:35 Sunny 55 12.5 32 0.1 43 43 NW 13 20 30.09 1019 10 16 N/A
10:55 am 10:55 Sunny 58 14.7 30 -1.1 34 34 NNW 24 39 30.08 1019 10 16 N/A
11:15 am 11:15 Sunny 60 15.4 27 -3 28 28 NNW 21 33 30.07 1018 10 16 N/A
11:35 am 11:35 Sunny 60 15.3 25 -3.9 27 27 NNW 24 39 30.06 1018 10 16 N/A
11:55 am 11:55 Sunny 60 15.8 23 -5 24 24 N 24 39 30.06 1018 10 16 N/A
12:15 pm 12:15 Sunny 59 15.2 22 -5.3 24 24 NNW 23 37 30.06 1018 10 16 N/A
12:35 pm 12:35 Sunny 60 15.6 20 -6.4 22 22 NNW 26 43 30.06 1018 10 16 N/A
12:55 pm 12:55 Sunny 60 15.6 20 -6.4 22 22 N 26 43 30.06 1018 10 16 N/A
1:15 pm 13:15 Sunny 60 15.4 21 -5.9 23 23 NNW 22 35 30.07 1018 10 16 N/A
1:35 pm 13:35 Sunny 59 14.8 22 -5.7 24 24 NNW 22 35 30.08 1019 10 16 N/A
1:55 pm 13:55 Sunny 60 15.3 23 -4.8 25 25 N 23 37 30.06 1018 10 16 N/A
2:15 pm 14:15 Sunny 59 15.1 24 -4.5 26 26 NNW 22 35 30.06 1018 10 16 N/A
2:35 pm 14:35 Sunny 59 15 24 -4.5 26 26 N 26 43 30.07 1018 10 16 N/A
2:55 pm 14:55 Sunny 59 14.9 25 -4.1 27 27 NNW 21 33 30.08 1019 10 16 N/A
3:15 pm 15:15 Sunny 58 14.6 24 -4.6 26 26 NNW 22 35 30.08 1019 10 16 N/A
3:35 pm 15:35 Sunny 58 14.3 24 -4.5 27 27 N 21 33 30.09 1019 10 16 N/A
3:55 pm 15:55 Sunny 55 12.8 24 -4.4 30 30 N 21 33 30.11 1019 10 16 N/A
4:15 pm 16:15 Sunny 55 13 24 -4.3 30 30 NNW 15 24 30.11 1020 10 16 N/A
4:35 pm 16:35 Sunny 53 11.4 26 -3.6 35 35 N 10 17 30.14 1021 10 16 N/A
4:55 pm 16:55 Sunny 51 10.8 25 -4 35 35 N 12 19 30.14 1021 10 16 N/A
5:15 pm 17:15 Clear 47 8.3 25 -4 42 42 NNW 9 15 30.18 1022 10 16 N/A
5:35 pm 17:35 Clear 48 9 26 -3.3 42 42 N 12 19 30.19 1022 10 16 N/A
5:55 pm 17:55 Clear 46 7.5 27 -2.7 49 49 N 10 17 30.21 1023 10 16 N/A
6:15 pm 18:15 Clear 45 7.1 28 -2.4 51 51 N 13 20 30.22 1023 10 16 N/A
6:35 pm 18:35 Clear 43 6 28 -2.3 56 56 N 9 15 30.24 1024 10 16 N/A
6:55 pm 18:55 Clear 40 4.7 27 -2.7 59 59 N 8 13 30.26 1025 10 16 N/A
7:15 pm 19:15 Clear 38 3.5 27 -2.8 64 64 N 8 13 30.28 1025 10 16 N/A
7:35 pm 19:35 Clear 37 2.9 27 -2.6 67 67 N 8 13 30.30 1026 10 16 N/A
7:55 pm 19:55 Clear 38 3.2 28 -2.4 67 67 N 9 15 30.31 1026 10 16 N/A
8:15 pm 20:15 Clear 37 2.6 27 -2.6 69 69 NNW 8 13 30.32 1027 10 16 N/A
8:35 pm 20:35 Clear 38 3.1 28 -2.4 68 68 N 6 9 30.31 1026 10 16 N/A
8:55 pm 20:55 Clear 35 1.6 27 -2.6 74 74 NNW 5 7 30.33 1027 10 16 N/A
9:15 pm 21:15 Clear 34 1 27 -2.9 75 75 NNW 6 9 30.34 1027 7 11 N/A
9:35 pm 21:35 Clear 32 0.1 26 -3.6 76 76 W 5 7 30.36 1028 10 16 N/A
9:55 pm 21:55 Clear 32 undefined 26 -3.5 78 78 WNW 6 9 30.35 1028 10 16 N/A
10:15 pm 22:15 Clear 31 -0.7 26 -3.6 81 81 WNW 6 9 30.37 1029 10 16 N/A
10:35 pm 22:35 Clear 31 -0.7 25 -3.7 80 80 W 7 11 30.37 1029 10 16 N/A
10:55 pm 22:55 Clear 33 0.7 28 -2.5 79 79 W 7 11 30.36 1028 10 16 N/A
11:15 pm 23:15 Clear 33 0.5 28 -2.5 81 81 W 5 7 30.36 1028 10 16 N/A
11:35 pm 23:35 Clear 31 -0.3 26 -3.4 80 80 W 8 13 30.37 1028 10 16 N/A
11:55 pm 23:55 Clear 30 -1 26 -3.5 83 83 W 5 7 30.38 1029 10 16 N/A

Powered by AerisWeather